When you browse on this site, cookies collect data to enhance your experience and personalize the content and advertising you see.
Visit our Privacy Policy to learn more. By continuing to use the site, you agree to this use of cookies and data.
  • în România
  • Lista ţărilor
  • Pe 7 zile
  • Temperatura apei
  • Meteo pe hartă
  • Widget-uri
  • user-avatar
    Intrare

    Meteo pe oră la Dalat

    Astăzi, 10 Decembrie, Marţi

    Timp Temperatura Precipitaţii Vânt Presiune Umiditate
    00:00 +13°C° 0 mm 1 m/s 653 mmHg 94%
    01:00 +13°C° 0 mm 1 m/s 652 mmHg 94%
    02:00 +13°C° 0 mm 1 m/s 652 mmHg 93%
    03:00 +13°C° 0 mm 1 m/s 652 mmHg 92%
    04:00 +13°C° 0 mm 1 m/s 651 mmHg 91%
    05:00 +13°C° 0 mm 1 m/s 652 mmHg 88%
    06:00 +14°C° 0 mm 1 m/s 652 mmHg 85%
    07:00 +15°C° 0 mm 1 m/s 653 mmHg 82%
    08:00 +18°C° 0 mm 1 m/s 654 mmHg 73%
    09:00 +21°C° 0 mm 1 m/s 655 mmHg 65%
    10:00 +23°C° 0 mm 1 m/s 656 mmHg 56%
    11:00 +24°C° 0 mm 1 m/s 655 mmHg 55%
    12:00 +25°C° 0 mm 1 m/s 655 mmHg 53%
    13:00 +25°C° 0 mm 1 m/s 655 mmHg 52%
    14:00 +24°C° 0 mm 1 m/s 654 mmHg 58%
    15:00 +23°C° 0 mm 1 m/s 653 mmHg 64%
    16:00 +22°C° 0 mm 1 m/s 653 mmHg 70%
    17:00 +20°C° 0 mm 1 m/s 653 mmHg 79%
    18:00 +18°C° 0 mm 1 m/s 652 mmHg 87%
    19:00 +16°C° 0 mm 1 m/s 652 mmHg 96%
    20:00 +15°C° 0 mm 1 m/s 652 mmHg 96%
    21:00 +15°C° 0 mm 1 m/s 653 mmHg 96%
    22:00 +14°C° 0 mm 1 m/s 653 mmHg 97%
    23:00 +14°C° 0 mm 1 m/s 652 mmHg 96%

    Mâine, 11 Decembrie, Miercuri

    Timp Temperatura Precipitaţii Vânt Presiune Umiditate
    00:00 +13°C° 0 mm 1 m/s 652 mmHg 96%
    01:00 +13°C° 0 mm 1 m/s 651 mmHg 95%
    02:00 +13°C° 0 mm 1 m/s 651 mmHg 93%
    03:00 +13°C° 0 mm 1 m/s 651 mmHg 91%
    04:00 +13°C° 0 mm 1 m/s 651 mmHg 89%
    05:00 +13°C° 0 mm 1 m/s 651 mmHg 84%
    06:00 +14°C° 0 mm 1 m/s 652 mmHg 80%
    07:00 +15°C° 0 mm 1 m/s 652 mmHg 76%
    08:00 +19°C° 0 mm 1 m/s 653 mmHg 67%
    09:00 +21°C° 0 mm 1 m/s 654 mmHg 58%
    10:00 +24°C° 0 mm 1 m/s 655 mmHg 49%
    11:00 +25°C° 0 mm 1 m/s 655 mmHg 48%
    12:00 +25°C° 0 mm 1 m/s 655 mmHg 48%
    13:00 +26°C° 0 mm 1 m/s 654 mmHg 47%
    14:00 +25°C° 0 mm 1 m/s 654 mmHg 54%
    15:00 +24°C° 0 mm 1 m/s 653 mmHg 61%
    16:00 +23°C° 0 mm 1 m/s 652 mmHg 67%
    17:00 +21°C° 0 mm 1 m/s 652 mmHg 77%
    18:00 +19°C° 0 mm 1 m/s 652 mmHg 87%
    19:00 +16°C° 0 mm 1 m/s 652 mmHg 96%
    20:00 +15°C° 0 mm 1 m/s 652 mmHg 96%
    21:00 +15°C° 0 mm 1 m/s 652 mmHg 96%
    22:00 +15°C° 0 mm 1 m/s 653 mmHg 96%
    23:00 +14°C° 0 mm 1 m/s 652 mmHg 95%

    Poimâine, 12 Decembrie, Joi

    Timp Temperatura Precipitaţii Vânt Presiune Umiditate
    00:00 +14°C° 0 mm 1 m/s 652 mmHg 94%
    01:00 +13°C° 0 mm 1 m/s 652 mmHg 93%
    02:00 +13°C° 0 mm 1 m/s 651 mmHg 92%
    03:00 +13°C° 0 mm 1 m/s 651 mmHg 91%
    04:00 +13°C° 0 mm 1 m/s 651 mmHg 90%
    05:00 +14°C° 0 mm 1 m/s 651 mmHg 89%
    06:00 +14°C° 0 mm 1 m/s 652 mmHg 88%
    07:00 +15°C° 0 mm 1 m/s 653 mmHg 87%
    08:00 +18°C° 0 mm 1 m/s 654 mmHg 79%
    09:00 +20°C° 0 mm 1 m/s 654 mmHg 71%
    10:00 +23°C° 0 mm 2 m/s 655 mmHg 63%
    11:00 +24°C° 0 mm 2 m/s 655 mmHg 60%
    12:00 +24°C° 0 mm 2 m/s 655 mmHg 58%
    13:00 +25°C° 0 mm 2 m/s 654 mmHg 55%
    14:00 +24°C° 0 mm 2 m/s 654 mmHg 60%
    15:00 +23°C° 0 mm 2 m/s 653 mmHg 65%
    16:00 +21°C° 0 mm 2 m/s 653 mmHg 70%
    17:00 +19°C° 0 mm 2 m/s 653 mmHg 79%
    18:00 +18°C° 0 mm 1 m/s 653 mmHg 87%
    19:00 +15°C° 0 mm 1 m/s 653 mmHg 95%
    20:00 +15°C° 0 mm 1 m/s 653 mmHg 95%
    21:00 +14°C° 0 mm 1 m/s 653 mmHg 94%
    22:00 +13°C° 0 mm 1 m/s 653 mmHg 93%
    23:00 +13°C° 0 mm 1 m/s 652 mmHg 90%

    13 Decembrie, Vineri

    Timp Temperatura Precipitaţii Vânt Presiune Umiditate
    00:00 +13°C° 0 mm 1 m/s 652 mmHg 86%
    01:00 +13°C° 0 mm 1 m/s 652 mmHg 83%
    02:00 +13°C° 0 mm 1 m/s 652 mmHg 82%
    03:00 +13°C° 0 mm 1 m/s 651 mmHg 80%
    04:00 +13°C° 0 mm 1 m/s 651 mmHg 79%
    05:00 +13°C° 0 mm 1 m/s 652 mmHg 77%
    06:00 +14°C° 0 mm 1 m/s 653 mmHg 76%
    07:00 +15°C° 0 mm 1 m/s 653 mmHg 74%
    08:00 +18°C° 0 mm 1 m/s 654 mmHg 70%
    09:00 +20°C° 0 mm 2 m/s 655 mmHg 65%
    10:00 +23°C° 0 mm 2 m/s 655 mmHg 61%
    11:00 +24°C° 0 mm 2 m/s 655 mmHg 59%
    12:00 +25°C° 0 mm 2 m/s 655 mmHg 57%
    13:00 +25°C° 0 mm 3 m/s 655 mmHg 56%
    14:00 +24°C° 0 mm 2 m/s 654 mmHg 60%
    15:00 +24°C° 0 mm 2 m/s 654 mmHg 64%
    16:00 +23°C° 0 mm 2 m/s 653 mmHg 68%
    17:00 +20°C° 0 mm 2 m/s 653 mmHg 77%
    18:00 +19°C° 0 mm 1 m/s 653 mmHg 86%
    19:00 +16°C° 0 mm 1 m/s 653 mmHg 95%
    20:00 +16°C° 0 mm 1 m/s 653 mmHg 95%
    21:00 +15°C° 0 mm 1 m/s 653 mmHg 95%
    22:00 +15°C° 0 mm 1 m/s 653 mmHg 95%
    23:00 +15°C° 0 mm 1 m/s 653 mmHg 96%

    14 Decembrie, Sâmbătă

    Timp Temperatura Precipitaţii Vânt Presiune Umiditate
    00:00 +15°C° 0 mm 1 m/s 653 mmHg 96%
    01:00 +15°C° 0 mm 1 m/s 653 mmHg 97%
    02:00 +15°C° 0 mm 1 m/s 652 mmHg 97%
    03:00 +15°C° 0 mm 1 m/s 652 mmHg 97%
    04:00 +15°C° 0 mm 2 m/s 652 mmHg 97%
    05:00 +15°C° 0 mm 2 m/s 652 mmHg 95%
    06:00 +16°C° 0 mm 2 m/s 653 mmHg 93%
    07:00 +16°C° 0 mm 2 m/s 653 mmHg 91%
    08:00 +18°C° 0 mm 2 m/s 654 mmHg 82%
    09:00 +20°C° 0 mm 3 m/s 655 mmHg 72%
    10:00 +22°C° 0 mm 3 m/s 655 mmHg 63%
    11:00 +24°C° 0 mm 3 m/s 655 mmHg 60%
    12:00 +25°C° 0 mm 3 m/s 655 mmHg 58%
    13:00 +26°C° 0 mm 3 m/s 654 mmHg 55%
    14:00 +25°C° 0 mm 3 m/s 654 mmHg 59%
    15:00 +24°C° 0 mm 3 m/s 653 mmHg 64%
    16:00 +23°C° 0 mm 2 m/s 653 mmHg 68%
    17:00 +20°C° 0 mm 2 m/s 653 mmHg 77%
    18:00 +18°C° 0 mm 2 m/s 653 mmHg 87%
    19:00 +16°C° 0 mm 1 m/s 652 mmHg 97%
    20:00 +16°C° 0 mm 1 m/s 653 mmHg 96%
    21:00 +16°C° 0 mm 1 m/s 653 mmHg 96%
    22:00 +15°C° 0 mm 1 m/s 653 mmHg 96%
    23:00 +15°C° 0 mm 1 m/s 653 mmHg 96%

    15 Decembrie, Duminică

    Timp Temperatura Precipitaţii Vânt Presiune Umiditate
    00:00 +15°C° 0 mm 1 m/s 653 mmHg 96%
    01:00 +14°C° 0 mm 1 m/s 652 mmHg 96%
    02:00 +14°C° 0 mm 1 m/s 652 mmHg 96%
    03:00 +14°C° 0 mm 1 m/s 652 mmHg 95%
    04:00 +14°C° 0 mm 2 m/s 651 mmHg 94%
    05:00 +15°C° 0 mm 1 m/s 652 mmHg 92%
    06:00 +16°C° 0 mm 1 m/s 652 mmHg 90%
    07:00 +16°C° 0 mm 1 m/s 653 mmHg 87%
    08:00 +19°C° 0 mm 2 m/s 654 mmHg 79%
    09:00 +21°C° 0 mm 2 m/s 654 mmHg 70%
    10:00 +24°C° 0 mm 2 m/s 655 mmHg 62%
    11:00 +25°C° 0.1 mm 2 m/s 655 mmHg 62%
    12:00 +25°C° 0.1 mm 2 m/s 654 mmHg 63%
    13:00 +25°C° 0.1 mm 2 m/s 654 mmHg 63%
    14:00 +25°C° 0.3 mm 2 m/s 653 mmHg 67%
    15:00 +24°C° 0.3 mm 2 m/s 653 mmHg 72%
    16:00 +23°C° 0.3 mm 2 m/s 653 mmHg 76%
    17:00 +21°C° 0.2 mm 1 m/s 652 mmHg 83%
    18:00 +20°C° 0.2 mm 1 m/s 652 mmHg 90%
    19:00 +18°C° 0.2 mm 1 m/s 652 mmHg 97%
    20:00 +18°C° 0 mm 1 m/s 652 mmHg 96%
    21:00 +18°C° 0 mm 1 m/s 653 mmHg 96%
    22:00 +16°C° 0 mm 1 m/s 653 mmHg 96%
    23:00 +16°C° 0 mm 1 m/s 653 mmHg 96%
    Arată mai mult